Date_and_time,latitude,longitude,wind_speed,RelWindDirFrom,WindDirFrom,air_pressure,air_temperature,relative_humidity,Temp,platform_speed_wrt_ground,air_pressure_at_mean_sea_level,platform_orientation
2018-09-01 23:50,50.6304316666667,-96.9807833333333,13.3,15.7,151,980.31,21.4,49,19.21,0.0,1005.92,360.0
2018-09-02 00:00,50.6304433333333,-96.980775,13.4,16.0,151,980.12,21.4,49,19.20,0.0,1005.74,311.7
2018-09-02 00:10,50.630465,-96.9807866666667,11.1,14.9,156,980.11,21.2,52,19.23,0.0,1005.71,311.7
2018-09-02 00:20,50.63045,-96.980775,10.5,13.6,157,980.08,21.0,53,19.24,0.0,1005.68,311.7
2018-09-02 00:30,50.630455,-96.9807866666667,10.9,13.2,164,980.12,20.9,56,19.24,0.0,1005.75,311.7
2018-09-02 00:40,50.63046,-96.9807733333333,10.2,13.0,163,980.17,20.6,60,19.25,0.0,1005.81,311.7
2018-09-02 00:50,50.6304583333333,-96.980775,10.9,14.0,161,980.22,20.5,60,19.26,0.0,1005.88,311.7
2018-09-02 01:00,50.630455,-96.9807716666667,13.0,17.9,155,980.16,20.7,55,19.25,0.0,1005.81,299.2
2018-09-02 01:10,50.6304566666667,-96.980755,15.6,19.3,152,980.13,20.8,54,19.25,0.0,1005.76,299.2
2018-09-02 01:20,50.6304583333333,-96.9807633333333,15.7,19.4,150,980.20,20.8,54,19.24,0.0,1005.84,299.2
2018-09-02 01:30,50.630455,-96.9807616666667,15.4,18.2,146,980.23,20.5,57,19.24,0.0,1005.88,299.2
2018-09-02 01:40,50.6304533333333,-96.9807666666667,14.7,20.2,134,979.98,20.7,55,19.24,0.0,1005.62,299.2
2018-09-02 01:50,50.630445,-96.9807566666667,15.6,20.9,134,979.81,20.8,54,19.24,0.0,1005.44,299.2
2018-09-02 02:00,50.6304483333333,-96.980755,16.2,21.0,136,979.65,20.6,54,19.23,0.0,1005.30,360.0
2018-09-02 02:10,50.63045,-96.9807566666667,17.0,19.9,145,979.72,20.2,56,19.23,0.0,1005.39,360.0
2018-09-02 02:20,50.63045,-96.9807566666667,16.5,19.7,147,979.66,19.9,59,19.22,0.0,1005.35,360.0
2018-09-02 02:30,50.6304483333333,-96.9807566666667,15.0,18.8,153,979.87,19.9,58,19.21,0.0,1005.57,360.0
2018-09-02 02:40,50.63045,-96.9807566666667,12.6,16.1,170,980.40,20.0,58,19.21,0.0,1006.13,360.0
2018-09-02 02:50,50.6304483333333,-96.9807566666667,17.6,24.6,154,979.49,20.0,55,19.21,0.0,1005.18,360.0
2018-09-02 03:00,50.6304483333333,-96.9807583333333,17.9,22.9,154,979.37,20.1,55,19.21,0.0,1005.05,54.7
2018-09-02 03:10,50.6304483333333,-96.9807583333333,15.9,19.0,151,979.44,20.0,57,19.20,0.0,1005.12,54.7
2018-09-02 03:20,50.6304483333333,-96.9807583333333,16.7,20.8,150,979.13,19.9,57,19.18,0.0,1004.82,54.7
2018-09-02 03:30,50.6304483333333,-96.9807583333333,17.1,20.9,154,978.90,19.9,56,19.17,0.0,1004.57,54.7
2018-09-02 03:40,50.6304483333333,-96.9807583333333,17.1,21.3,159,978.62,20.0,55,19.16,0.0,1004.29,54.7
2018-09-02 03:50,50.6304483333333,-96.98076,19.2,25.7,169,978.44,20.3,49,19.16,0.0,1004.09,54.7
2018-09-02 04:00,50.6304316666667,-96.9807633333333,22.6,28.9,172,978.19,21.0,43,19.15,0.0,1003.83,152.4
2018-09-02 04:10,50.6304366666667,-96.9807566666667,22.9,28.4,170,977.98,21.0,44,19.13,0.0,1003.62,152.4
2018-09-02 04:20,50.63044,-96.9807733333333,23.6,30.6,171,977.83,21.1,43,19.11,0.0,1003.46,152.4
2018-09-02 04:30,50.63044,-96.9807633333333,22.3,27.3,172,977.79,21.0,44,19.10,0.0,1003.42,152.4
2018-09-02 04:40,50.63044,-96.9807616666667,22.8,28.8,172,977.58,20.9,43,19.09,0.0,1003.21,152.4
2018-09-02 04:50,50.63044,-96.98076,21.6,25.9,171,977.49,20.8,44,19.08,0.0,1003.11,152.4
2018-09-02 05:00,50.6304433333333,-96.9807633333333,20.2,24.5,173,977.44,20.7,44,19.06,0.0,1003.08,192.6
2018-09-02 05:10,50.6304433333333,-96.9807633333333,18.8,23.7,175,977.42,20.7,44,19.06,0.0,1003.06,192.6
2018-09-02 05:20,50.630445,-96.9807633333333,19.4,26.8,181,977.41,20.9,42,19.05,0.0,1003.04,192.6
2018-09-02 05:30,50.6304466666667,-96.980765,19.6,25.9,182,977.39,21.2,42,19.04,0.0,1003.01,192.6
2018-09-02 05:40,50.6304483333333,-96.9807666666667,21.7,32.4,184,977.30,21.4,41,19.02,0.0,1002.89,192.6
2018-09-02 05:50,50.6304483333333,-96.9807666666667,19.6,25.9,189,977.43,21.5,41,19.02,0.0,1002.98,192.6
2018-09-02 06:00,50.6304483333333,-96.9807666666667,18.4,25.1,192,977.52,21.5,41,19.01,0.0,1003.08,270.0
2018-09-02 06:10,50.63045,-96.9807666666667,17.3,29.9,198,977.69,21.5,41,18.99,0.0,1003.25,270.0
2018-09-02 06:20,50.63045,-96.980765,17.2,23.2,196,977.66,21.4,42,18.98,0.0,1003.23,270.0
2018-09-02 06:30,50.63045,-96.9807666666667,13.9,18.9,203,977.89,21.3,42,18.97,0.0,1003.47,270.0
2018-09-02 06:40,50.6304533333333,-96.9807683333333,13.0,19.3,202,977.82,21.2,42,18.95,0.0,1003.40,270.0
2018-09-02 06:50,50.6304516666667,-96.980765,12.5,17.1,207,977.85,21.3,43,18.94,0.0,1003.43,270.0
2018-09-02 07:00,50.6304483333333,-96.9807633333333,12.6,17.9,210,977.94,21.2,43,18.95,0.0,1003.53,18.9
2018-09-02 07:10,50.630445,-96.98076,10.8,15.7,212,978.18,20.9,45,18.94,0.0,1003.78,18.9
2018-09-02 07:20,50.6304433333333,-96.9807566666667,8.9,12.9,222,978.36,20.5,47,18.92,0.0,1003.98,18.9
2018-09-02 07:30,50.6304333333333,-96.9807483333333,9.4,14.7,232,978.64,20.2,48,18.92,0.0,1004.27,18.9
2018-09-02 07:40,50.63045,-96.9807533333333,7.0,11.9,258,978.81,20.0,49,18.92,0.0,1004.45,18.9
2018-09-02 07:50,50.6304516666667,-96.9807566666667,8.6,17.3,269,978.99,19.6,50,18.92,0.0,1004.65,18.9
2018-09-02 08:00,50.6304483333333,-96.9807583333333,8.0,13.6,273,979.19,19.1,51,18.93,0.0,1004.87,12.6
2018-09-02 08:10,50.6304316666667,-96.9807666666667,7.0,13.2,279,979.37,18.6,53,18.95,0.0,1005.08,12.6
2018-09-02 08:20,50.6304766666667,-96.9807766666667,7.5,13.1,273,979.53,18.1,56,18.96,0.0,1005.27,12.6
2018-09-02 08:30,50.630445,-96.9807583333333,6.0,10.7,274,979.68,17.6,59,18.93,0.0,1005.46,12.6
2018-09-02 08:40,50.630445,-96.98076,5.3,10.4,273,979.79,17.2,61,18.90,0.0,1005.58,12.6
2018-09-02 08:50,50.6304433333333,-96.980765,5.7,10.8,267,979.89,16.9,63,18.91,0.0,1005.71,12.6
2018-09-02 09:00,50.6304466666667,-96.980765,7.5,13.6,274,980.03,16.6,64,18.91,0.0,1005.87,0.0
2018-09-02 09:10,50.630445,-96.980765,7.5,15.4,275,980.27,16.4,64,18.92,0.0,1006.15,0.0
2018-09-02 09:20,50.630445,-96.9807716666667,6.4,10.5,268,980.61,16.1,65,18.93,0.0,1006.53,0.0
2018-09-02 09:30,50.6304433333333,-96.98077,6.4,11.5,276,980.78,15.8,66,18.93,0.0,1006.72,0.0
2018-09-02 09:40,50.6304433333333,-96.98077,7.6,12.6,283,980.90,15.7,65,18.90,0.0,1006.87,0.0
2018-09-02 09:50,50.6304433333333,-96.9807683333333,5.9,11.1,283,981.01,15.5,66,18.88,0.0,1007.02,0.0
2018-09-02 10:00,50.6304483333333,-96.9807366666667,5.7,10.4,275,981.28,15.1,70,18.87,0.0,1007.33,90.0
2018-09-02 10:10,50.6304516666667,-96.9807716666667,6.1,10.5,276,981.64,14.9,72,18.87,0.0,1007.73,90.0
2018-09-02 10:20,50.630445,-96.9807683333333,5.2,8.9,269,981.90,14.7,72,18.86,0.0,1008.04,90.0
2018-09-02 10:30,50.6304433333333,-96.9807633333333,4.7,8.5,260,982.10,14.5,72,18.86,0.0,1008.26,90.0
2018-09-02 10:40,50.63044,-96.9807633333333,5.1,8.0,270,982.27,14.4,71,18.85,0.0,1008.46,90.0
2018-09-02 10:50,50.63044,-96.980765,4.3,7.0,269,982.41,14.3,71,18.85,0.0,1008.62,90.0
2018-09-02 11:00,50.6304433333333,-96.980795,4.0,6.9,262,982.58,14.0,72,18.85,0.0,1008.82,258.2
2018-09-02 11:10,50.6304483333333,-96.9807816666667,4.6,7.9,252,982.68,13.9,73,18.84,0.0,1008.94,258.2
2018-09-02 11:20,50.6304483333333,-96.9807766666667,4.9,7.6,249,982.94,13.7,74,18.84,0.0,1009.23,258.2
2018-09-02 11:30,50.6304483333333,-96.9807766666667,5.1,9.3,249,983.16,13.5,74,18.83,0.0,1009.47,258.2
2018-09-02 11:40,50.6304466666667,-96.9807733333333,5.8,9.0,257,983.17,13.4,75,18.83,0.0,1009.49,258.2
2018-09-02 11:50,50.6304416666667,-96.980775,5.5,8.9,254,983.29,13.1,77,18.81,0.0,1009.65,258.2
2018-09-02 12:00,50.6304416666667,-96.980765,4.9,7.4,247,983.47,12.8,80,18.80,0.0,1009.86,360.0
2018-09-02 12:10,50.6304416666667,-96.9807616666667,5.2,8.5,254,983.54,12.7,81,18.80,0.0,1009.95,360.0
2018-09-02 12:20,50.6304416666667,-96.98076,4.6,7.3,243,983.72,12.5,82,18.80,0.0,1010.14,360.0
2018-09-02 12:30,50.6304416666667,-96.9807616666667,4.8,7.2,237,983.85,12.4,83,18.79,0.0,1010.29,360.0
2018-09-02 12:40,50.6304416666667,-96.9807616666667,4.1,5.9,241,984.00,12.4,83,18.78,0.0,1010.44,360.0
2018-09-02 12:50,50.6304416666667,-96.9807633333333,4.1,6.1,247,984.19,12.6,82,18.78,0.0,1010.64,360.0
2018-09-02 13:00,50.6304433333333,-96.9807616666667,5.0,8.0,253,984.26,12.8,81,18.77,0.0,1010.71,246.4
2018-09-02 13:10,50.6304433333333,-96.9807633333333,4.9,7.7,252,984.45,13.0,79,18.76,0.0,1010.91,246.4
2018-09-02 13:20,50.6304433333333,-96.9807616666667,5.3,7.7,238,984.60,13.1,78,18.74,0.0,1011.06,246.4
2018-09-02 13:30,50.6304433333333,-96.9807616666667,5.4,9.1,248,984.72,13.4,76,18.72,0.0,1011.18,246.4
2018-09-02 13:40,50.630445,-96.9807633333333,6.0,9.6,253,984.71,13.5,75,18.72,0.0,1011.18,246.4
2018-09-02 13:50,50.63046,-96.9807866666667,6.1,10.7,259,984.82,13.7,74,18.71,0.0,1011.30,246.4
2018-09-02 14:00,50.6304466666667,-96.9807733333333,7.2,14.3,265,984.95,14.0,71,18.69,0.0,1011.43,72.3
2018-09-02 14:10,50.630465,-96.980805,10.5,16.0,271,984.95,14.2,69,18.68,0.0,1011.42,72.3
2018-09-02 14:20,50.6304516666667,-96.9807716666667,9.3,14.8,267,985.08,14.3,67,18.68,0.0,1011.56,72.3
2018-09-02 14:30,50.6304433333333,-96.9807633333333,9.1,15.0,277,985.04,14.5,67,18.67,0.0,1011.51,72.3
2018-09-02 14:40,50.630445,-96.980765,8.3,13.6,272,985.18,14.6,66,18.66,0.0,1011.64,72.3
2018-09-02 14:50,50.630445,-96.980765,8.1,13.9,275,985.25,14.8,65,18.64,0.0,1011.69,72.3
2018-09-02 15:00,50.6304433333333,-96.980765,6.6,11.8,263,985.33,14.9,65,18.62,0.0,1011.76,0.0
2018-09-02 15:10,50.63044,-96.98077,8.2,12.1,273,985.30,15.0,64,18.63,0.0,1011.71,0.0
2018-09-02 15:20,50.6304416666667,-96.9807666666667,6.8,9.8,281,985.27,15.1,63,18.64,0.0,1011.67,0.0
2018-09-02 15:30,50.63044,-96.9807666666667,7.7,10.8,282,985.22,15.3,62,18.66,0.0,1011.60,0.0
2018-09-02 15:40,50.6304383333333,-96.9807683333333,6.8,12.7,283,985.31,15.6,61,18.67,0.0,1011.67,0.0
2018-09-02 15:50,50.6304266666667,-96.9807783333333,7.5,12.0,291,985.44,15.8,60,18.70,0.0,1011.78,0.0
2018-09-02 16:00,50.6304316666667,-96.9807733333333,7.5,12.1,283,985.58,16.0,59,18.73,0.0,1011.91,228.3
2018-09-02 16:10,50.630435,-96.9807683333333,8.0,13.3,271,985.61,16.1,59,18.76,0.0,1011.93,228.3
2018-09-02 16:20,50.630435,-96.980765,7.6,12.5,276,985.58,16.4,58,18.77,0.0,1011.88,228.3
2018-09-02 16:30,50.630435,-96.9807633333333,6.6,12.2,273,985.51,16.6,57,18.80,0.0,1011.79,228.3
2018-09-02 16:40,50.6304333333333,-96.980765,5.9,13.6,286,985.39,16.9,55,18.83,0.0,1011.65,228.3
2018-09-02 16:50,50.6304483333333,-96.980785,8.2,13.0,275,985.46,17.0,54,18.87,0.0,1011.70,228.3
2018-09-02 17:00,50.6304483333333,-96.9807716666667,8.6,13.3,286,985.48,17.3,53,18.92,0.0,1011.71,0.0
2018-09-02 17:10,50.6304483333333,-96.9807733333333,7.7,13.0,285,985.40,17.4,52,18.97,0.0,1011.61,0.0
2018-09-02 17:20,50.6304466666667,-96.9807766666667,7.1,12.5,290,985.33,17.7,51,19.00,0.0,1011.52,0.0
2018-09-02 17:30,50.6304316666667,-96.9807833333333,7.6,13.9,292,985.38,18.0,49,19.01,0.0,1011.54,0.0
2018-09-02 17:40,50.6304383333333,-96.980775,6.9,14.2,285,985.48,18.0,48,19.05,0.0,1011.64,0.0
2018-09-02 17:50,50.63044,-96.980775,8.0,12.6,281,985.55,18.3,47,19.08,0.0,1011.69,0.0
2018-09-02 18:00,50.6304433333333,-96.980775,8.1,14.1,268,985.72,18.6,45,19.09,0.0,1011.84,270.0
2018-09-02 18:10,50.6304433333333,-96.980775,7.7,12.6,272,985.74,18.7,44,19.12,0.0,1011.85,270.0
2018-09-02 18:20,50.6304416666667,-96.9807716666667,8.7,20.1,257,985.88,18.6,44,19.14,0.0,1011.98,270.0
2018-09-02 18:30,50.6304533333333,-96.9807833333333,8.1,13.3,278,985.87,18.8,43,19.21,0.0,1011.96,270.0
2018-09-02 18:40,50.6304566666667,-96.9807766666667,9.0,15.8,275,985.98,18.9,42,19.30,0.0,1012.06,270.0
2018-09-02 18:50,50.6304516666667,-96.98077,10.7,17.9,273,986.07,18.9,41,19.36,0.0,1012.14,270.0
2018-09-02 19:00,50.6304483333333,-96.9807666666667,10.4,19.3,276,986.05,19.1,41,19.38,0.0,1012.10,23.5
2018-09-02 19:10,50.63042,-96.9807783333333,8.3,15.5,287,986.06,19.2,39,19.37,0.0,1012.09,23.5
2018-09-02 19:20,50.630435,-96.9807766666667,9.3,16.0,278,986.08,19.4,39,19.34,0.0,1012.09,23.5
2018-09-02 19:30,50.6304233333333,-96.9807766666667,8.7,16.9,283,986.14,19.6,38,19.31,0.0,1012.14,23.5
2018-09-02 19:40,50.6304266666667,-96.9807716666667,9.7,17.9,289,986.18,19.7,35,19.29,0.0,1012.17,23.5
2018-09-02 19:50,50.6304316666667,-96.9807666666667,8.8,15.1,298,986.23,19.6,34,19.26,0.0,1012.21,23.5
2018-09-02 20:00,50.630435,-96.9807666666667,9.5,15.5,269,986.34,19.8,33,19.23,0.0,1012.31,165.5
2018-09-02 20:10,50.630435,-96.980765,8.1,12.9,291,986.33,20.0,31,19.23,0.0,1012.29,165.5
2018-09-02 20:20,50.6304366666667,-96.980775,8.7,15.0,290,986.34,20.1,31,19.28,0.0,1012.28,165.5
2018-09-02 20:30,50.6304383333333,-96.9807733333333,10.9,18.8,280,986.31,20.1,31,19.33,0.0,1012.26,165.5
2018-09-02 20:40,50.6304383333333,-96.9807716666667,10.2,19.6,267,986.42,20.2,31,19.31,0.0,1012.37,165.5
2018-09-02 20:50,50.6304383333333,-96.98077,9.9,18.0,292,986.44,20.2,30,19.41,0.0,1012.38,165.5
2018-09-02 21:00,50.6304283333333,-96.98076,10.3,17.8,281,986.50,20.3,29,19.47,0.0,1012.42,147.5
2018-09-02 21:10,50.6304466666667,-96.9807866666667,8.5,16.3,288,986.49,20.5,30,19.47,0.0,1012.40,147.5
2018-09-02 21:20,50.6304366666667,-96.9807716666667,9.1,17.9,280,986.55,20.6,29,19.42,0.0,1012.44,147.5
2018-09-02 21:30,50.6304366666667,-96.9807666666667,8.9,16.7,270,986.64,20.5,29,19.42,0.0,1012.54,147.5
2018-09-02 21:40,50.6304383333333,-96.9807633333333,8.7,13.9,275,986.57,20.5,30,19.47,0.0,1012.47,147.5
2018-09-02 21:50,50.6304416666667,-96.980765,7.5,15.9,258,986.69,20.6,29,19.47,0.0,1012.59,147.5
2018-09-02 22:00,50.6304416666667,-96.9807666666667,9.3,16.3,255,986.82,20.8,27,19.46,0.0,1012.69,360.0
2018-09-02 22:10,50.6304416666667,-96.9807666666667,8.7,15.1,268,986.79,20.8,27,19.46,0.0,1012.66,360.0
2018-09-02 22:20,50.63044,-96.9807666666667,8.6,14.3,263,986.81,21.0,27,19.45,0.0,1012.67,360.0
2018-09-02 22:30,50.6304433333333,-96.9807783333333,8.1,13.5,268,986.86,20.8,27,19.46,0.0,1012.73,360.0
2018-09-02 22:40,50.630445,-96.98075,7.2,13.4,262,986.94,20.9,28,19.47,0.0,1012.81,360.0
2018-09-02 22:50,50.6304433333333,-96.9807766666667,8.4,14.9,258,986.92,20.9,29,19.48,0.0,1012.78,360.0
2018-09-02 23:00,50.63044,-96.98077,7.6,14.6,252,986.90,21.0,27,19.48,0.0,1012.75,360.0
2018-09-02 23:10,50.6304383333333,-96.9807666666667,10.4,16.1,250,986.89,20.8,26,19.47,0.0,1012.74,360.0
2018-09-02 23:20,50.6304383333333,-96.9807666666667,9.2,15.9,249,986.89,20.8,27,19.46,0.0,1012.75,360.0
2018-09-02 23:30,50.6304383333333,-96.980765,8.6,14.0,255,986.87,20.7,27,19.45,0.0,1012.73,360.0
